Regional Weather Roundup
Issued by NWS

Home | Current Version | Previous Version | Text Only | Print | Product List | Glossary Off
Versions: 1 2 3 4 5 6 7 8 9 10 11 12 13 14 15 16 17 18 19 20 21 22 23 24 25 26 27 28 29 30 31 32 33 34 35 36 37 38 39 40 41 42 43 44 45 46 47 48 49 50

537
ASUS45 KSLC 230610
RWRUT

UTAH REGIONAL WEATHER ROUNDUP
NATIONAL WEATHER SERVICE SALT LAKE CITY UT
1200 AM MDT SAT SEP 23 2017

UTZ001>011-023>025-230700-

NORTHERN UTAH

CITY           SKY/WX    TMP DP  RH WIND       PRES   REMARKS
BRIGHAM CITY   MOCLDY    43  37  80 W5        29.99S
HILL AFB       CLEAR     42  33  70 SE7       29.97S
LOGAN          PTCLDY    42  39  89 SW3       30.00R
OGDEN          CLEAR     40  37  89 CALM      29.97S
SALT LAKE CITY PTCLDY    45  40  82 S3        29.96F
TOOELE VALLEY  PTCLDY    39  36  87 SE3       29.98S
WENDOVER       CLEAR     40  37  89 CALM      30.00S
HEBER CITY     PTCLDY    34  32  93 CALM      29.96S
WEST JORDAN    CLEAR     42  41  95 W6        29.97S

$$

UTZ011>015-024>027-230700-

CENTRAL/NORTHEAST UTAH

CITY           SKY/WX    TMP DP  RH WIND       PRES   REMARKS
PROVO AIRPORT  CLEAR     43  38  82 E5        29.96F
MOAB/CANYONLAN CLEAR     57  30  35 W12       29.77R
DELTA          CLEAR     37  36  93 NW8       29.96S WCI  31
PRICE          PTCLDY    46  27  47 N6        29.87S
RICHFIELD      PTCLDY    41  37  87 CALM      29.96S
ROOSEVELT      CLOUDY    46  30  53 W15       29.89S
VERNAL         MOCLDY    49  34  56 NE12G20   29.90R

$$

UTZ013>016-019>022-027-230700-

SOUTHERN UTAH

CITY           SKY/WX    TMP DP  RH WIND       PRES   REMARKS
BRYCE CANYON   CLEAR     32  26  78 N5        29.94S WCI  27
CEDAR CITY     MOCLDY    41  38  89 CALM      29.91S
MILFORD        CLEAR     43  38  82 N20       29.93S
ST GEORGE      PTCLDY    60  36  40 N7        29.80R
HANKSVILLE     PTCLDY    52  30  43 NE3       29.82S
KANAB          CLEAR     43  23  45 N5        29.89S
BLANDING         N/A     58  28  31 S7        29.94R

$$

REGIONAL REPORTS     COLORADO/ARIZONA

CITY           SKY/WX    TMP DP  RH WIND       PRES   REMARKS
CRAIG, CO      RAIN      48  41  76 VRB6      29.95R
GRAND JUNCTION PTCLDY    66  32  28 VRB6      29.77S
RIFLE, CO      PTCLDY    60  39  45 NW3       29.84S
MONTROSE, CO   MOCLDY    55  37  50 SE5       29.88S
CORTEZ, CO     CLOUDY    58  33  39 S7        29.89F
PAGE, AZ       CLEAR     62  22  21 SW3       29.79S
GRAND CANYON   PTCLDY    30  14  51 CALM      29.92S
KINGMAN, AZ    CLEAR     50  23  34 E8        29.80F
FLAGSTAFF, AZ  PTCLDY    43  31  62 SW5       29.93F

$$

REGIONAL REPORTS    NEVADA/IDAHO/WYOMING

CITY           SKY/WX    TMP DP  RH WIND       PRES   REMARKS
LAS VEGAS, NV  CLEAR     68  21  16 N6        29.76S
ELY, NY        FOG       31  31 100 NW3       30.00S VSB 1/4
ELKO, NV       CLEAR     33  31  92 CALM      30.01S
POCATELLO, ID  CLEAR     37  32  82 SW6       30.02R WCI  32
BURLEY, ID     CLEAR     38  34  85 SW5       30.00S WCI  34
FORT BRIDGER,  CLOUDY    36  36 100 SE5       30.03S FOG     WCI  32
EVANSTON, WY   CLOUDY    36  33  89 N3        29.99F
ROCK SPRINGS,  CLOUDY    35  33  92 CALM      30.00F
KEMMERER, WY     N/A     34  32  93 CALM      30.01R

$$




USA.gov is the U.S. government's official web portal to all federal, state and local government web resources and services.